Date String (YYYY-MM-DD hh:mm:ss) UTC,Instrument flags,Ambient pressure (hPa),Sample flow (lpm),Bypass flow (lpm),Sample temperature (°C),Ambient temperature (°C),ASC tube jacket temperature (°C),LED temperature (°C),Box temperature (°C),Sample RH (%),Span deviation,Mass concentration (μg/m³),Mass concentration (μg/m³),Mass concentration (μg/m³)
DateTimeUTC,F1_M11,P_M11,Q1_M11,Q2_M11,T1_M11,T2_M11,T3_M11,T4_M11,T5_M11,U1_M11,ZSPAN_M11,X0_M11,X2_M11,X1_M11
2022-07-01 16:00:00,,0831.2,5.02,0.00,29.8,28.5,00.0,38.5,31.7,29.8,0000.0,0009.30,0004.76,0004.04
2022-07-01 16:01:00,,0831.2,4.99,0.00,29.8,28.6,00.0,38.5,31.7,29.8,0000.0,0009.23,0004.76,0004.03
2022-07-01 16:02:00,,0831.1,5.00,0.00,29.8,28.7,00.0,38.6,31.8,30.1,0000.0,0009.29,0004.77,0004.02
2022-07-01 16:03:00,,0831.1,5.00,0.00,29.8,28.8,00.0,38.6,31.8,30.1,0000.0,0009.16,0004.79,0004.02
2022-07-01 16:04:00,,0831.1,5.00,0.00,29.8,28.8,00.0,38.6,31.8,29.6,0000.0,0009.30,0004.80,0004.02
2022-07-01 16:05:00,,0831.1,5.01,0.00,29.9,28.8,00.0,38.6,31.8,29.9,0000.0,0008.92,0004.77,0004.01
2022-07-01 16:06:00,,0831.1,5.01,0.00,29.9,28.3,00.0,38.5,31.7,30.1,0000.0,0008.90,0004.73,0004.00
2022-07-01 16:07:00,,0831.1,5.00,0.00,29.8,27.6,00.0,38.5,31.6,30.1,0000.0,0008.97,0004.72,0003.98
2022-07-01 16:08:00,,0831.0,5.00,0.00,29.8,27.3,00.0,38.5,31.5,29.8,0000.0,0009.01,0004.75,0003.99
2022-07-01 16:09:00,,0831.0,5.00,0.00,29.7,27.4,00.0,38.5,31.4,30.0,0000.0,0009.03,0004.76,0003.98
2022-07-01 16:10:00,,0831.1,5.00,0.00,29.6,27.5,00.0,38.5,31.4,30.1,0000.0,0009.38,0004.76,0003.98
2022-07-01 16:11:00,,0831.1,5.00,0.00,29.6,27.6,00.0,38.4,31.4,30.1,0000.0,0009.45,0004.71,0003.97
2022-07-01 16:12:00,,0831.2,5.00,0.00,29.6,27.8,00.0,38.4,31.4,30.4,0000.0,0009.31,0004.67,0003.97
2022-07-01 16:13:00,,0831.2,5.00,0.00,29.6,27.9,00.0,38.4,31.5,30.2,0000.0,0009.46,0004.68,0003.98
2022-07-01 16:14:00,,0831.1,4.98,0.00,29.6,28.1,00.0,38.4,31.5,30.3,0000.0,0009.74,0004.68,0004.01
2022-07-01 16:15:00,,0831.1,5.00,0.00,29.6,28.2,00.0,38.4,31.5,30.4,0000.0,0009.74,0004.69,0004.03
2022-07-01 16:16:00,,0831.0,5.00,0.00,29.6,28.3,00.0,38.4,31.5,30.2,0000.0,0009.74,0004.74,0004.06
2022-07-01 16:17:00,,0831.1,5.00,0.00,29.7,28.4,00.0,38.4,31.6,30.3,0000.0,0009.60,0004.77,0004.09
2022-07-01 16:18:00,,0831.0,4.99,0.00,29.7,28.5,00.0,38.4,31.6,30.3,0000.0,0009.50,0004.81,0004.12
2022-07-01 16:19:00,,0831.0,5.00,0.00,29.7,28.6,00.0,38.5,31.6,30.0,0000.0,0009.61,0004.84,0004.13
2022-07-01 16:20:00,,0831.1,4.99,0.00,29.7,28.7,00.0,38.5,31.7,29.9,0000.0,0009.77,0004.90,0004.14
2022-07-01 16:21:00,,0831.0,4.99,0.00,29.8,28.7,00.0,38.5,31.7,30.1,0000.0,0009.48,0004.88,0004.15
2022-07-01 16:22:00,,0831.0,5.00,0.00,29.8,28.8,00.0,38.5,31.8,29.9,0000.0,0009.61,0004.87,0004.14
2022-07-01 16:23:00,,0831.0,5.01,0.00,29.8,28.7,00.0,38.5,31.7,29.8,0000.0,0009.74,0004.86,0004.12
2022-07-01 16:24:00,,0831.0,5.01,0.00,29.8,28.0,00.0,38.4,31.7,29.8,0000.0,0009.47,0004.82,0004.09
2022-07-01 16:25:00,,0831.0,4.99,0.00,29.8,27.4,00.0,38.4,31.5,29.6,0000.0,0009.01,0004.76,0004.05
2022-07-01 16:26:00,,0831.0,5.00,0.00,29.7,27.3,00.0,38.4,31.4,29.7,0000.0,0008.76,0004.75,0004.03
2022-07-01 16:27:00,,0831.0,5.00,0.00,29.6,27.3,00.0,38.4,31.4,29.9,0000.0,0009.18,0004.71,0003.99
2022-07-01 16:28:00,,0831.0,5.01,0.00,29.6,27.5,00.0,38.4,31.3,30.0,0000.0,0010.12,0004.68,0003.95
2022-07-01 16:29:00,,0831.0,5.00,0.00,29.6,27.6,00.0,38.4,31.4,29.9,0000.0,0010.10,0004.66,0003.94
2022-07-01 16:30:00,,0831.0,5.00,0.00,29.5,27.8,00.0,38.4,31.4,29.9,0000.0,0010.04,0004.64,0003.91
2022-07-01 16:31:00,,0831.0,4.99,0.00,29.6,27.9,00.0,38.4,31.4,29.8,0000.0,0009.94,0004.59,0003.87
2022-07-01 16:32:00,,0830.9,5.01,0.00,29.6,28.1,00.0,38.4,31.4,30.0,0000.0,0010.00,0004.61,0003.85
2022-07-01 16:33:00,,0830.9,5.00,0.00,29.6,28.2,00.0,38.4,31.5,30.3,0000.0,0009.79,0004.65,0003.83
2022-07-01 16:34:00,,0830.9,4.99,0.00,29.6,28.3,00.0,38.4,31.5,30.4,0000.0,0009.73,0004.64,0003.82
2022-07-01 16:35:00,,0831.0,5.01,0.00,29.6,28.4,00.0,38.4,31.6,29.7,0000.0,0009.80,0004.59,0003.80
2022-07-01 16:36:00,,0831.0,4.99,0.00,29.6,28.5,00.0,38.4,31.6,29.7,0000.0,0009.87,0004.59,0003.79
2022-07-01 16:37:00,,0831.0,5.00,0.00,29.7,28.6,00.0,38.4,31.7,30.3,0000.0,0010.03,0004.59,0003.77
2022-07-01 16:38:00,,0831.0,5.00,0.00,29.7,28.7,00.0,38.4,31.7,30.3,0000.0,0010.16,0004.59,0003.75
2022-07-01 16:39:00,,0831.0,5.00,0.00,29.7,28.6,00.0,38.4,31.7,30.2,0000.0,0009.46,0004.58,0003.72
2022-07-01 16:40:00,,0831.0,5.00,0.00,29.7,27.9,00.0,38.4,31.6,30.1,0000.0,0010.12,0004.53,0003.70
2022-07-01 16:41:00,,0831.0,5.01,0.00,29.7,27.4,00.0,38.3,31.4,29.9,0000.0,0010.94,0004.51,0003.70
2022-07-01 16:42:00,,0831.0,5.00,0.00,29.6,27.2,00.0,38.3,31.3,29.9,0000.0,0011.18,0004.51,0003.69
2022-07-01 16:43:00,,0831.0,4.99,0.00,29.5,27.3,00.0,38.3,31.3,29.3,0000.0,0011.30,0004.47,0003.67
2022-07-01 16:44:00,,0831.0,4.99,0.00,29.5,27.4,00.0,38.3,31.3,29.5,0000.0,0011.35,0004.44,0003.66
2022-07-01 16:45:00,,0831.0,4.99,0.00,29.5,27.6,00.0,38.3,31.3,29.0,0000.0,0011.49,0004.43,0003.64
2022-07-01 16:46:00,,0831.0,5.01,0.00,29.5,27.7,00.0,38.3,31.3,29.1,0000.0,0011.33,0004.42,0003.62
2022-07-01 16:47:00,,0831.0,5.01,0.00,29.5,27.9,00.0,38.3,31.4,29.4,0000.0,0011.32,0004.42,0003.61
2022-07-01 16:48:00,,0831.0,4.99,0.00,29.5,28.0,00.0,38.3,31.4,29.6,0000.0,0011.28,0004.41,0003.61
2022-07-01 16:49:00,,0831.0,5.00,0.00,29.5,28.1,00.0,38.3,31.4,29.8,0000.0,0010.76,0004.35,0003.60
2022-07-01 16:50:00,,0831.0,5.00,0.00,29.5,28.2,00.0,38.3,31.4,29.4,0000.0,0010.39,0004.34,0003.61
2022-07-01 16:51:00,,0831.1,5.00,0.00,29.5,28.3,00.0,38.3,31.5,29.5,0000.0,0010.99,0004.38,0003.61
2022-07-01 16:52:00,,0831.0,5.00,0.00,29.6,28.4,00.0,38.3,31.5,29.7,0000.0,0009.70,0004.34,0003.59
2022-07-01 16:53:00,,0831.1,5.00,0.00,29.6,28.5,00.0,38.3,31.6,29.3,0000.0,0009.41,0004.29,0003.59
2022-07-01 16:54:00,,0831.1,5.01,0.00,29.6,28.6,00.0,38.3,31.6,29.4,0000.0,0009.18,0004.29,0003.59
2022-07-01 16:55:00,,0831.1,5.01,0.00,29.6,28.5,00.0,38.3,31.6,29.0,0000.0,0009.10,0004.30,0003.60
2022-07-01 16:56:00,,0831.0,5.01,0.00,29.6,27.7,00.0,38.3,31.5,28.9,0000.0,0008.97,0004.31,0003.62
2022-07-01 16:57:00,,0831.0,4.99,0.00,29.6,27.2,00.0,38.2,31.3,29.1,0000.0,0009.63,0004.34,0003.64
2022-07-01 16:58:00,,0831.1,5.00,0.00,29.5,27.1,00.0,38.2,31.3,29.3,0000.0,0009.55,0004.34,0003.65
2022-07-01 16:59:00,,0831.0,4.99,0.00,29.4,27.1,00.0,38.2,31.2,29.0,0000.0,0009.46,0004.32,0003.63
